Simultaneous Nadir Overpasses (SNOs) Predictions

Prediction of SNOs near US between AQUA and NPP Satellite Orbit:

Table of predicted SNOs near US for the next 10.0 days since TLE Epoch: 3/14/2014
Index Date (AQUA) Time (AQUA) AQUA Lat,Lon Date (NPP) Time (NPP) NPP Lat,Lon Distance(km) Time Diff (sec)
1 03/16/2014 07:19:27 49.92, -75.97 03/16/2014 07:24:00 50.36, -78.09 158.92 273
2 03/16/2014 08:58:20 49.93,-100.69 03/16/2014 09:05:28 50.48,-103.41 203.31 428
3 03/18/2014 18:17:40 49.96, -80.20 03/18/2014 18:14:24 49.67, -81.79 118.89 196
4 03/18/2014 19:56:33 49.95,-104.91 03/18/2014 19:55:52 49.55,-107.12 164.17 41
5 03/18/2014 21:29:58 30.35,-123.25 03/18/2014 21:31:42 29.81,-125.74 246.75 104
6 03/21/2014 07:46:24 20.06, -89.52 03/21/2014 07:39:16 20.03, -89.35 18.02 428
7 03/21/2014 09:21:37 33.30,-110.92 03/21/2014 09:16:58 33.37,-111.18 25.53 279
8 03/24/2014 06:31:07 46.35, -65.04 03/24/2014 06:34:39 46.74, -67.00 155.49 212
9 03/24/2014 08:09:00 49.92, -88.35 03/24/2014 08:15:05 50.43, -90.79 182.83 365




NCC Satellite Simultaneous Nadir Overpasses (SNOs) Prediction Service
